TimeGMT,TemperatureF,Dew PointF,Humidity,Sea Level PressureIn,VisibilityMPH,Wind Direction,Wind SpeedMPH,Gust SpeedMPH,PrecipitationIn,Events,Conditions,WindDirDegrees,DateUTC
2:50 AM,41,34,67,,,North,11.5,,,,,10,2012-11-28 02:50:00
5:50 AM,41,33,64,,,North,12.7,,,,,350,2012-11-28 05:50:00
6:20 AM,41.0,33.8,76,30.04,6.2,North,8.1,-,N/A,,Scattered Clouds,350,2012-11-28 06:20:00
6:50 AM,41.0,33.8,76,30.06,6.2,North,9.2,-,N/A,,Partly Cloudy,10,2012-11-28 06:50:00
7:20 AM,41.0,33.8,76,30.06,6.2,North,10.4,-,N/A,,Partly Cloudy,350,2012-11-28 07:20:00
7:50 AM,41.0,33.8,76,30.06,6.2,North,8.1,-,N/A,,Partly Cloudy,360,2012-11-28 07:50:00
8:20 AM,41.0,33.8,76,30.06,6.2,North,8.1,-,N/A,,Partly Cloudy,350,2012-11-28 08:20:00
8:50 AM,40,33,66,,,NNW,9.2,,,,,330,2012-11-28 08:50:00
8:50 AM,41.0,33.8,76,30.06,6.2,NNW,9.2,-,N/A,,Partly Cloudy,340,2012-11-28 08:50:00
9:20 AM,41.0,33.8,76,30.09,6.2,North,10.4,-,N/A,,Partly Cloudy,10,2012-11-28 09:20:00
9:50 AM,42.8,33.8,70,30.09,6.2,North,10.4,-,N/A,,Partly Cloudy,360,2012-11-28 09:50:00
10:20 AM,42.8,32.0,66,30.09,6.2,North,12.7,-,N/A,,Partly Cloudy,360,2012-11-28 10:20:00
10:50 AM,42.8,32.0,66,30.09,6.2,North,13.8,-,N/A,,Partly Cloudy,360,2012-11-28 10:50:00
11:20 AM,42.8,32.0,66,30.09,6.2,North,9.2,-,N/A,,Partly Cloudy,360,2012-11-28 11:20:00
11:50 AM,42,30,52,,,North,11.5,,,,,0,2012-11-28 11:50:00
11:50 AM,42.8,32.0,66,30.09,6.2,North,9.2,-,N/A,,Partly Cloudy,360,2012-11-28 11:50:00
12:20 PM,42.8,32.0,66,30.06,6.2,North,13.8,-,N/A,,Partly Cloudy,360,2012-11-28 12:20:00
12:50 PM,42.8,32.0,66,30.06,6.2,NNE,9.2,-,N/A,,Partly Cloudy,20,2012-11-28 12:50:00
1:20 PM,42.8,32.0,66,30.06,6.2,North,12.7,-,N/A,,Partly Cloudy,360,2012-11-28 13:20:00
1:50 PM,42.8,32.0,66,30.06,6.2,North,9.2,-,N/A,,Partly Cloudy,360,2012-11-28 13:50:00
2:20 PM,42.8,32.0,66,30.06,6.2,North,11.5,-,N/A,,Partly Cloudy,360,2012-11-28 14:20:00
2:50 PM,41,30,53,,,North,10.4,,,,,0,2012-11-28 14:50:00
2:50 PM,42.8,30.2,61,30.06,6.2,North,9.2,-,N/A,,Partly Cloudy,10,2012-11-28 14:50:00
3:20 PM,41.0,30.2,65,30.06,6.2,North,10.4,-,N/A,,Partly Cloudy,10,2012-11-28 15:20:00
3:50 PM,41.0,30.2,65,30.06,6.2,North,6.9,-,N/A,,Partly Cloudy,10,2012-11-28 15:50:00
4:20 PM,39.2,30.2,70,30.06,6.2,NNE,8.1,-,N/A,,Partly Cloudy,30,2012-11-28 16:20:00
5:20 PM,39.2,30.2,70,30.09,6.2,North,6.9,-,N/A,,Partly Cloudy,10,2012-11-28 17:20:00
5:50 PM,38,29,59,,,North,8.1,,,,,350,2012-11-28 17:50:00
5:50 PM,39.2,30.2,70,30.06,6.2,North,6.9,-,N/A,,Partly Cloudy,350,2012-11-28 17:50:00
6:20 PM,39.2,30.2,70,30.06,-9999.0,North,6.9,-,N/A,,Clear,350,2012-11-28 18:20:00
6:50 PM,37.4,30.2,75,30.06,-9999.0,North,5.8,-,N/A,,Clear,350,2012-11-28 18:50:00
7:20 PM,37.4,30.2,75,30.06,-9999.0,North,4.6,-,N/A,,Clear,10,2012-11-28 19:20:00
7:50 PM,33.8,26.6,75,30.09,-9999.0,East,2.3,-,N/A,,Clear,80,2012-11-28 19:50:00
8:20 PM,33.8,28.4,81,30.09,-9999.0,Calm,Calm,-,N/A,,Clear,0,2012-11-28 20:20:00
8:50 PM,37,29,62,,,NNW,6.9,,,,,340,2012-11-28 20:50:00
11:50 PM,38,29,60,,,North,6.9,,,,,350,2012-11-28 23:50:00